User: anonymous   Login
Location: Columbia
(38.9520°N, 92.3340°W)
Time: 10:54:35
(UTC-05:00)
Language:

Meteor 1-4 Rocket - Orbit

View from above orbital plane
View from above orbital plane
View from above satellite
View from above satellite

Ground track
Ground track

The orbit data is extracted from the following two-line orbital elements,

1 04394U 70037B   16120.14360364  .00002040  00000-0  74334-4 0  9995
2 04394  81.2412 140.5068 0043686  96.4707 264.1504 15.26754364501566
Epoch (UTC): 29 April 2016 03:26:47
Eccentricity: 0.0043686
inclination: 81.2412°
perigee height: 455 km
apogee height: 515 km
right ascension of ascending node: 140.5068°
argument of perigee: 96.4707°
revolutions per day: 15.26754364
mean anomaly at epoch: 264.1504°
orbit number at epoch: 50156

The dashed part of the orbit path shows where the satellite is in the earth's shadow,  

DLR